Mattoon, IL

8:47 AM CDT on July 28, 2017 (GMT -0500)
Coles County Memorial

Weather History for KMTO - November, 2013

Change the Weather History Date:

Monday, November 18, 2013

  Actual Average Record
Temperature  
Mean Temperature 40 °F 42 °F  
Max Temperature 51 °F 50 °F 71 °F (1953)
Min Temperature 28 °F 34 °F 10 °F (2014)
Degree Days  
Heating Degree Days 25 23  
Month to date heating degree days 366 344  
Since 1 July heating degree days 716 748  
Cooling Degree Days 0 0  
Month to date cooling degree days 0 0  
Year to date cooling degree days 1007 1057  
Moisture  
Dew Point 32 °F    
Average Humidity 66    
Maximum Humidity 89    
Minimum Humidity 42    
Precipitation  
Precipitation 0.00 in 0.12 in 1.68 in (2003)
Month to date precipitation 0.07 2.12  
Year to date precipitation 40.76 33.92  
Sea Level Pressure  
Sea Level Pressure 30.12 in    
Wind  
Wind Speed 13 mph (WNW)    
Max Wind Speed 28 mph    
Max Gust Speed 33 mph    
Visibility 10 miles    
Events      
T = Trace of Precipitation, MM = Missing Value Source: NWS Daily Summary

Daily Weather History Graph

Daily Weather History Graph

Search for Another Location

Airport or City:

Trip Planner

Search our weather history database for the weather conditions in past years. The results will help you decide how hot, cold, wet, or windy it might be!

Date:

Astronomy

Nov. 18, 2013 Rise Set
Actual Time 6:40 AM CST 4:35 PM CST
Civil Twilight 6:11 AM CST 5:04 PM CST
Nautical Twilight 5:39 AM CST 5:37 PM CST
Astronomical Twilight 5:07 AM CST 6:09 PM CST
Moon 5:37 PM CST (11/18) 7:29 AM CST (11/18)
Length of Visible Light 10h 52m
Length of Day
9h 54m
Full, 99% of the Moon is Illuminated
Nov 18
Full
Nov 25
Last Quarter
Dec 2
New
Dec 9
First Quarter
Dec 17
Full

Hourly Weather History & Observations

Time (CST) Temp. Windchill Dew Point Humidity Pressure Visibility Wind Dir Wind Speed Gust Speed Precip Events Conditions
12:53 AM 45.0 °F 40.1 °F 39.0 °F 80% 29.92 in 10.0 mi West 9.2 mph - N/A   Clear
1:53 AM 44.1 °F 38.6 °F 39.9 °F 85% 29.95 in 10.0 mi West 10.4 mph - N/A   Clear
2:53 AM 44.1 °F 37.7 °F 39.0 °F 82% 29.97 in 10.0 mi West 12.7 mph - N/A   Clear
3:53 AM 43.0 °F 37.7 °F 39.0 °F 86% 29.98 in 10.0 mi West 9.2 mph - N/A   Clear
4:53 AM 42.1 °F 37.1 °F 37.9 °F 85% 29.99 in 10.0 mi West 8.1 mph - N/A   Clear
5:53 AM 41.0 °F 35.8 °F 37.0 °F 86% 30.01 in 10.0 mi West 8.1 mph - N/A   Clear
6:53 AM 39.9 °F 33.9 °F 36.0 °F 86% 30.04 in 10.0 mi West 9.2 mph - N/A   Clear
7:53 AM 42.1 °F 36.6 °F 37.0 °F 82% 30.06 in 10.0 mi West 9.2 mph - N/A   Clear
8:53 AM 45.0 °F 37.9 °F 37.9 °F 76% 30.09 in 10.0 mi West 16.1 mph - N/A   Clear
9:53 AM 46.9 °F - 37.0 °F 68% 30.11 in 10.0 mi WNW 18.4 mph - N/A   Clear
10:53 AM 48.9 °F - 35.1 °F 59% 30.12 in 10.0 mi WNW 19.6 mph 28.8 mph N/A   Clear
11:53 AM 50.0 °F - 34.0 °F 54% 30.13 in 10.0 mi WNW 20.7 mph 29.9 mph N/A   Clear
12:53 PM 50.0 °F - 30.9 °F 48% 30.14 in 10.0 mi WNW 26.5 mph 31.1 mph N/A   Clear
1:53 PM 51.1 °F - 30.0 °F 44% 30.14 in 10.0 mi NW 21.9 mph 29.9 mph N/A   Clear
2:53 PM 50.0 °F - 28.9 °F 44% 30.17 in 10.0 mi NW 23.0 mph - N/A   Clear
3:53 PM 46.9 °F - 28.0 °F 48% 30.19 in 10.0 mi NW 20.7 mph - N/A   Clear
4:53 PM 42.1 °F 35.7 °F 28.9 °F 60% 30.20 in 10.0 mi WNW 11.5 mph - N/A   Clear
5:53 PM 35.1 °F 28.6 °F 28.0 °F 76% 30.22 in 10.0 mi WNW 8.1 mph - N/A   Clear
6:53 PM 36.0 °F 28.5 °F 28.0 °F 73% 30.23 in 10.0 mi WNW 10.4 mph - N/A   Clear
7:53 PM 34.0 °F 26.0 °F 27.0 °F 75% 30.23 in 10.0 mi WNW 10.4 mph - N/A   Clear
8:53 PM 32.0 °F 23.6 °F 26.1 °F 79% 30.25 in 10.0 mi WNW 10.4 mph - N/A   Clear
9:53 PM 30.0 °F 22.4 °F 25.0 °F 82% 30.26 in 10.0 mi WNW 8.1 mph - N/A   Clear
10:53 PM 28.9 °F 22.8 °F 25.0 °F 85% 30.28 in 10.0 mi NW 5.8 mph - N/A   Clear
11:53 PM 28.9 °F 21.9 °F 25.0 °F 85% 30.28 in 10.0 mi NW 6.9 mph - N/A   Clear